Wolke Sonne

Wetter Roßtal

Gehe zu: Ammerndorf

Tageswerte vom Montag, 26.02.2024

Optionen

Tag:
Erweitert:

Alle Werte vom Montag, 26.02.2024

Einen Moment bitte, die Daten werden aufbereitet...

UhrzeitTemperaturLuftfeuchteLuftdruckNiederschlagEvapotranspirationNiederschlag?WindWindböenRegenrateWindrichtungHelligkeitSolarstrahlungUV-IndexSonne?Feinstaub 10µmFeinstaub 2,5µmFeinstaub 1µmLuftqualitätsindexUhrzeit
Diagramm IconDiagramm IconDiagramm IconDiagramm IconDiagramm IconDiagramm IconDiagramm IconDiagramm IconDiagramm IconDiagramm IconDiagramm IconDiagramm IconDiagramm IconDiagramm IconDiagramm IconDiagramm IconDiagramm IconDiagramm Icon
00:002,9 °C 87 % 1001,4 hPa 0,0 mm 0,0 mm nein 3,2 km/h 6,4 km/h 0,0 mm/h SSW 0,000 klux 0,0 W/qm 0,0 nein 17,50 µg/m³ 11,50 µg/m³ 9,00 µg/m³ 48 AQI 00:00
00:052,9 °C 87 % 1001,3 hPa 0,0 mm 0,0 mm nein 3,2 km/h 6,4 km/h 0,0 mm/h SSW 0,000 klux 0,0 W/qm 0,0 nein 18,00 µg/m³ 11,50 µg/m³ 9,00 µg/m³ 48 AQI 00:05
00:102,8 °C 87 % 1001,3 hPa 0,0 mm 0,0 mm nein 4,8 km/h 8,0 km/h 0,0 mm/h S 0,000 klux 0,0 W/qm 0,0 nein 18,00 µg/m³ 11,50 µg/m³ 9,00 µg/m³ 48 AQI 00:10
00:152,8 °C 86 % 1001,3 hPa 0,0 mm 0,0 mm nein 3,2 km/h 6,4 km/h 0,0 mm/h S 0,000 klux 0,0 W/qm 0,0 nein 16,50 µg/m³ 11,00 µg/m³ 9,00 µg/m³ 45 AQI 00:15
00:202,8 °C 86 % 1001,4 hPa 0,0 mm 0,0 mm nein 4,8 km/h 9,7 km/h 0,0 mm/h S 0,000 klux 0,0 W/qm 0,0 nein 18,00 µg/m³ 11,00 µg/m³ 8,50 µg/m³ 45 AQI 00:20
00:252,8 °C 86 % 1001,4 hPa 0,0 mm 0,0 mm nein 3,2 km/h 9,7 km/h 0,0 mm/h S 0,000 klux 0,0 W/qm 0,0 nein 17,50 µg/m³ 11,50 µg/m³ 9,50 µg/m³ 48 AQI 00:25
00:302,8 °C 86 % 1001,3 hPa 0,0 mm 0,0 mm nein 3,2 km/h 6,4 km/h 0,0 mm/h S 0,000 klux 0,0 W/qm 0,0 nein 29,00 µg/m³ 16,50 µg/m³ 11,50 µg/m³ 60 AQI 00:30
00:352,7 °C 86 % 1001,3 hPa 0,0 mm 0,0 mm nein 3,2 km/h 8,0 km/h 0,0 mm/h S 0,000 klux 0,0 W/qm 0,0 nein 23,00 µg/m³ 14,50 µg/m³ 11,00 µg/m³ 56 AQI 00:35
00:402,7 °C 86 % 1001,2 hPa 0,0 mm 0,0 mm nein 4,8 km/h 9,7 km/h 0,0 mm/h S 0,000 klux 0,0 W/qm 0,0 nein 19,50 µg/m³ 13,00 µg/m³ 9,00 µg/m³ 53 AQI 00:40
00:452,7 °C 86 % 1001,1 hPa 0,0 mm 0,0 mm nein 4,8 km/h 6,4 km/h 0,0 mm/h SSW 0,000 klux 0,0 W/qm 0,0 nein 15,50 µg/m³ 10,50 µg/m³ 8,50 µg/m³ 43 AQI 00:45
00:502,7 °C 86 % 1001,1 hPa 0,0 mm 0,0 mm nein 4,8 km/h 8,0 km/h 0,0 mm/h SSW 0,000 klux 0,0 W/qm 0,0 nein 15,00 µg/m³ 9,50 µg/m³ 7,50 µg/m³ 39 AQI 00:50
00:552,7 °C 86 % 1001,0 hPa 0,0 mm 0,0 mm nein 4,8 km/h 8,0 km/h 0,0 mm/h SSW 0,000 klux 0,0 W/qm 0,0 nein 15,50 µg/m³ 10,00 µg/m³ 8,00 µg/m³ 41 AQI 00:55
01:002,6 °C 86 % 1001,0 hPa 0,0 mm 0,0 mm nein 4,8 km/h 14,5 km/h 0,0 mm/h SSW 0,000 klux 0,0 W/qm 0,0 nein 16,50 µg/m³ 10,50 µg/m³ 8,50 µg/m³ 43 AQI 01:00
01:052,6 °C 86 % 1000,9 hPa 0,0 mm 0,0 mm nein 4,8 km/h 14,5 km/h 0,0 mm/h S 0,000 klux 0,0 W/qm 0,0 nein 16,00 µg/m³ 10,50 µg/m³ 8,00 µg/m³ 43 AQI 01:05
01:102,6 °C 86 % 1000,8 hPa 0,0 mm 0,0 mm nein 6,4 km/h 9,7 km/h 0,0 mm/h SSW 0,000 klux 0,0 W/qm 0,0 nein 16,50 µg/m³ 11,00 µg/m³ 8,50 µg/m³ 45 AQI 01:10
01:152,7 °C 86 % 1000,8 hPa 0,0 mm 0,0 mm nein 6,4 km/h 14,5 km/h 0,0 mm/h SSW 0,000 klux 0,0 W/qm 0,0 nein 16,00 µg/m³ 10,50 µg/m³ 8,50 µg/m³ 43 AQI 01:15
01:202,7 °C 86 % 1000,8 hPa 0,0 mm 0,0 mm nein 8,0 km/h 14,5 km/h 0,0 mm/h S 0,000 klux 0,0 W/qm 0,0 nein 16,00 µg/m³ 10,50 µg/m³ 8,50 µg/m³ 43 AQI 01:20
01:252,7 °C 87 % 1000,6 hPa 0,0 mm 0,0 mm nein 6,4 km/h 16,1 km/h 0,0 mm/h SSW 0,000 klux 0,0 W/qm 0,0 nein 16,50 µg/m³ 10,50 µg/m³ 8,50 µg/m³ 43 AQI 01:25
01:302,8 °C 86 % 1000,5 hPa 0,0 mm 0,0 mm nein 6,4 km/h 16,1 km/h 0,0 mm/h S 0,000 klux 0,0 W/qm 0,0 nein 17,00 µg/m³ 11,00 µg/m³ 9,00 µg/m³ 45 AQI 01:30
01:352,8 °C 87 % 1000,5 hPa 0,0 mm 0,0 mm nein 6,4 km/h 14,5 km/h 0,0 mm/h S 0,000 klux 0,0 W/qm 0,0 nein 16,50 µg/m³ 11,00 µg/m³ 8,50 µg/m³ 45 AQI 01:35
01:402,8 °C 86 % 1000,5 hPa 0,0 mm 0,0 mm nein 6,4 km/h 12,9 km/h 0,0 mm/h S 0,000 klux 0,0 W/qm 0,0 nein 17,50 µg/m³ 11,50 µg/m³ 9,00 µg/m³ 48 AQI 01:40
01:452,9 °C 86 % 1000,4 hPa 0,0 mm 0,0 mm nein 6,4 km/h 9,7 km/h 0,0 mm/h S 0,000 klux 0,0 W/qm 0,0 nein 18,50 µg/m³ 12,00 µg/m³ 9,50 µg/m³ 50 AQI 01:45
01:502,9 °C 87 % 1000,4 hPa 0,0 mm 0,0 mm nein 8,0 km/h 16,1 km/h 0,0 mm/h SSW 0,000 klux 0,0 W/qm 0,0 nein 21,00 µg/m³ 13,00 µg/m³ 10,00 µg/m³ 53 AQI 01:50
01:553,0 °C 87 % 1000,4 hPa 0,0 mm 0,0 mm nein 8,0 km/h 14,5 km/h 0,0 mm/h SSW 0,000 klux 0,0 W/qm 0,0 nein 23,50 µg/m³ 15,00 µg/m³ 10,50 µg/m³ 57 AQI 01:55
UhrzeitTemperaturLuftfeuchteLuftdruckNiederschlagEvapotranspirationNiederschlag?WindWindböenRegenrateWindrichtungHelligkeitSolarstrahlungUV-IndexSonne?Feinstaub 10µmFeinstaub 2,5µmFeinstaub 1µmLuftqualitätsindexUhrzeit
02:003,0 °C 86 % 1000,4 hPa 0,0 mm 0,0 mm nein 6,4 km/h 16,1 km/h 0,0 mm/h SSW 0,000 klux 0,0 W/qm 0,0 nein 23,00 µg/m³ 15,00 µg/m³ 10,50 µg/m³ 57 AQI 02:00
02:053,0 °C 86 % 1000,4 hPa 0,0 mm 0,0 mm nein 6,4 km/h 12,9 km/h 0,0 mm/h S 0,000 klux 0,0 W/qm 0,0 nein 26,50 µg/m³ 16,00 µg/m³ 11,50 µg/m³ 59 AQI 02:05
02:103,0 °C 86 % 1000,4 hPa 0,0 mm 0,0 mm nein 8,0 km/h 14,5 km/h 0,0 mm/h SSW 0,000 klux 0,0 W/qm 0,0 nein 27,00 µg/m³ 16,50 µg/m³ 11,50 µg/m³ 60 AQI 02:10
02:153,0 °C 86 % 1000,5 hPa 0,0 mm 0,0 mm nein 8,0 km/h 14,5 km/h 0,0 mm/h SSW 0,000 klux 0,0 W/qm 0,0 nein 25,00 µg/m³ 16,00 µg/m³ 12,00 µg/m³ 59 AQI 02:15
02:202,9 °C 86 % 1000,4 hPa 0,0 mm 0,0 mm nein 6,4 km/h 14,5 km/h 0,0 mm/h SSW 0,000 klux 0,0 W/qm 0,0 nein 28,00 µg/m³ 17,50 µg/m³ 12,50 µg/m³ 62 AQI 02:20
02:252,9 °C 86 % 1000,4 hPa 0,0 mm 0,0 mm nein 6,4 km/h 12,9 km/h 0,0 mm/h S 0,000 klux 0,0 W/qm 0,0 nein - - - - 02:25
Gesamt: 2,8 °C 86 % 1000,8 hPa 0,0 mm 0,0 mm nein 5,6 km/h 11,5 km/h 0,0 mm/h 0 0,000 klux 0,0 W/qm 0,0 nein 19,45 µg/m³ 12,41 µg/m³ 9,47 µg/m³ 49 AQI

Insgesamt 30 Zeilen mal 18 Spalten = 540 Werte werden angezeigt.

www.wetter-rosstal.de   •   www.wetter-franken.de   •   www.lightningmaps.org   •   Start   •   Kontakt / Datenschutz